This demonstration page uses our WeatherBlox Daily Observations layout. Learn more.

Left ArrowRight Arrow

39.92423, -83.80882

Hourly Observations for December 6, 2015

Temp ( °F °C ) Dew Point ( °F °C ) Humidity (%) Winds ( mph kmh ) Pressure ( in mb ) Visibility ( mi km ) Precip ( " mm )
12:00 am 00:00 Clear with Freezing Fog 27 -3 27 -3 100 100 E 5 7 30.62 1037 0.5 0.80467 0 0
12:09 am 00:09 Clear with Mist and Fog 27 -3 27 -3 100 100 E 5 7 30.62 1037 1 1.60934 0 0
12:19 am 00:19 Clear with Mist and Fog 27 -3 27 -3 100 100 SE 3 6 30.62 1037 0.75 1.207005 0 0
12:29 am 00:29 Clear with Mist and Fog 28 -2 28 -2 100 100 SE 3 6 30.62 1037 1.25 2.011675 0 0
12:40 am 00:40 Clear with Mist and Fog 27 -3 27 -3 100 100 SE 5 7 30.62 1037 1.5 2.41401 0 0
12:56 am 00:56 Clear with Mist and Fog 27 -2.7 27 -2.7 100 100 SE 5 7 30.58 1036 1.5 2.41401 0 0
1:19 am 01:19 Clear with Mist and Fog 27 -3 27 -3 100 100 Calm 30.59 1036 0.75 1.207005 0 0
1:23 am 01:23 Clear with Freezing Fog 27 -3 27 -3 100 100 Calm 30.59 1036 0.25 0.402335 0 0
1:35 am 01:35 Clear with Freezing Fog 27 -3 27 -3 100 100 E 3 6 30.59 1036 5 8.0467 0 0
1:56 am 01:56 Clear with Freezing Fog 25 -3.8 25 -3.8 100 100 E 5 7 30.56 1035 5 8.0467 0 0
2:56 am 02:56 Clear with Freezing Fog 23 -5 23 -5 100 100 ESE 5 7 30.55 1035 5 8.0467 0 0
3:42 am 03:42 Mostly Cloudy with Freezing Fog 25 -4 25 -4 100 100 E 3 6 30.56 1035 5 8.0467 0 0
3:56 am 03:56 Mostly Cloudy with Freezing Fog 23 -5 22 -5.5 96 96 E 6 9 30.53 1034 5 8.0467 0 0
4:07 am 04:07 Mostly Cloudy with Freezing Fog 21 -6 21 -6 100 100 E 5 7 30.56 1035 5 8.0467 0 0
4:13 am 04:13 Mostly Cloudy with Freezing Fog 21 -6 21 -6 100 100 ESE 5 7 30.56 1035 0.25 0.402335 0 0
4:22 am 04:22 Clear with Mist and Fog 23 -5 23 -5 100 100 ESE 5 7 30.53 1034 0.75 1.207005 0 0
4:25 am 04:25 Clear with Mist and Fog 23 -5 23 -5 100 100 ESE 3 6 30.56 1035 1.25 2.011675 0 0
4:28 am 04:28 Clear with Mist and Fog 23 -5 23 -5 100 100 SE 3 6 30.56 1035 2 3.21868 0 0
4:56 am 04:56 Clear with Mist and Fog 24 -4.4 23 -5 96 96 ESE 5 7 30.52 1033 3 4.82802 0 0
5:56 am 05:56 Clear with Mist and Fog 23 -5 23 -5 100 100 Calm 30.52 1034 1.75 2.816345 0 0
6:03 am 06:03 Clear with Mist and Fog 23 -5 23 -5 100 100 Calm 30.53 1034 2 3.21868 0 0
6:10 am 06:10 Clear with Mist and Fog 23 -5 21 -6 93 93 Calm 30.53 1034 1.75 2.816345 0 0
6:14 am 06:14 Clear with Mist and Fog 23 -5 23 -5 100 100 Calm 30.53 1034 3 4.82802 0 0
6:22 am 06:22 Clear with Mist and Fog 25 -4 23 -5 93 93 Calm 30.53 1034 1.75 2.816345 0 0
6:24 am 06:24 Clear with Mist and Fog 25 -4 23 -5 93 93 Calm 30.53 1034 0.75 1.207005 0 0
6:27 am 06:27 Clear with Freezing Fog 25 -4 23 -5 93 93 Calm 30.53 1034 0.25 0.402335 0 0
6:37 am 06:37 Clear with Freezing Fog 23 -5 23 -5 100 100 Calm 30.53 1034 5 8.0467 0 0
6:44 am 06:44 Clear with Freezing Fog 21 -6 21 -6 100 100 Calm 30.53 1034 0.25 0.402335 0 0
6:56 am 06:56 Clear with Freezing Fog 22 -5.5 22 -5.5 100 100 Calm 30.51 1033 5 8.0467 0 0
7:15 am 07:15 Clear with Freezing Fog 23 -5 23 -5 100 100 Calm 30.53 1034 0.5 0.80467 0 0
7:18 am 07:18 Clear with Mist and Fog 23 -5 23 -5 100 100 SSE 3 6 30.53 1034 1 1.60934 0 0
7:20 am 07:20 Clear with Mist and Fog 23 -5 23 -5 100 100 SSE 3 6 30.5 1033 1.5 2.41401 0 0
7:29 am 07:29 Clear with Mist and Fog 25 -4 23 -5 93 93 SSE 3 6 30.5 1033 2 3.21868 0 0
7:45 am 07:45 Sunny with Mist and Fog 25 -4 25 -4 100 100 SSE 3 6 30.5 1033 3 4.82802 0 0
7:56 am 07:56 Sunny with Mist and Fog 25 -3.8 25 -3.8 100 100 SSE 3 6 30.5 1033 5 8.0467 0 0
8:56 am 08:56 Sunny 29 -1.6 29 -1.6 100 100 SSE 3 6 30.49 1033 10 16.0934 0 0
9:56 am 09:56 Sunny 36 2.2 36 2.2 100 100 S 6 9 30.48 1032 10 16.0934 0 0
10:56 am 10:56 Sunny 41 5 37 2.7 85 85 S 3 6 30.46 1031 10 16.0934 0 0
11:56 am 11:56 Sunny 46 7.7 37 2.7 71 71 SSW 7 11 30.43 1031 10 16.0934 0 0
12:56 pm 12:56 Sunny 47 8.3 37 2.7 68 68 VRB 5 7 30.4 1030 10 16.0934 0 0
1:56 pm 13:56 Sunny 49 9.4 37 2.7 63 63 S 7 11 30.37 1029 10 16.0934 0 0
2:56 pm 14:56 Sunny 50 10 36 2.2 59 59 S 6 9 30.35 1028 10 16.0934 0 0
3:56 pm 15:56 Sunny 51 10.5 34 1.1 52 52 SSE 10 17 30.3 1026 10 16.0934 0 0
4:56 pm 16:56 Sunny 47 8.3 35 1.6 63 63 SSE 7 11 30.29 1026 10 16.0934 0 0
5:56 pm 17:56 Clear 43 6.1 32 0 65 65 SW 5 7 30.32 1027 10 16.0934 0 0
6:56 pm 18:56 Clear 34 1.1 30 -1.1 85 85 ESE 3 6 30.32 1027 10 16.0934 0 0
7:56 pm 19:56 Clear 31 -0.5 29 -1.6 92 92 ESE 3 6 30.31 1026 10 16.0934 0 0
8:56 pm 20:56 Clear 30 -1.1 29 -1.6 96 96 SE 6 9 30.29 1026 10 16.0934 0 0
9:56 pm 21:56 Mostly Cloudy 33 0.5 31 -0.5 93 93 S 5 7 30.28 1025 10 16.0934 0 0
10:56 pm 22:56 Mostly Clear 37 2.7 31 -0.5 80 80 S 5 7 30.27 1025 10 16.0934 0 0
11:56 pm 23:56 Mostly Clear 38 3.3 32 0 79 79 S 5 7 30.26 1025 10 16.0934 0 0

Powered by AerisWeather